{"data":{"norad_id":64172,"intl_designator":"2025-113C","name":"STARLINK-34233","alt_names":[],"object_type":"PAYLOAD","status":"ACTIVE","operator":null,"country":"US","launch_date":"2025-05-28","launch_site_code":"AFETR","launch_vehicle":null,"mission":null,"orbit_class":"UNKNOWN","rcs_meters":null,"size_class":null,"mass_kg":null,"dimensions":null,"purposes":["comms"],"wikipedia_slug":null,"has_3d_model":false,"image_url":null,"decayed_at":null,"tle_current":{"epoch":"2026-05-25T03:45:53.087616Z","epoch_age_seconds":51684,"freshness":"FRESH","line1":"1 64172U 25113C   26145.15686444  .00014630  00000+0  48217-3 0  9996","line2":"2 64172  53.1571  95.8761 0001110  82.6843 277.4284 15.31707222 56773","mean_motion":15.31707222,"eccentricity":0.000111,"inclination_deg":53.1571,"raan_deg":95.8761,"arg_perigee_deg":82.6843,"mean_anomaly_deg":277.4284,"bstar":0.00048217,"rev_number":5677,"period_min":94.01274468888,"perigee_km":469.95824394721,"apogee_km":471.47868986087,"semimajor_km":6848.855466904,"source":"CELESTRAK","updated_at":"2026-05-25T13:38:20.309207Z"}}}